Overview Statistics Trail Chart Weather Telemetry Raw packets
 

This is the latest recevied weather packets stored in our database for station/object KF0WJA. If no packets are shown the sender has not sent any weather packets the latest 10 day(s).

<< 27 28 29 30 31 32 33 >>
Time Temp. Humidity Pressure Rain* Wind** Luminosity Snow
1788476242 36.11° C 41% 1012.6 hPa 0 mm - 270 W/m² -
1788475938 36.11° C 40% 1012.4 hPa 0 mm - 265 W/m² -
1788475634 36.67° C 40% 1012.5 hPa 0 mm - 307 W/m² -
1788475330 36.67° C 41% 1012.5 hPa 0 mm - 310 W/m² -
1788475025 36.67° C 40% 1012.5 hPa 0 mm - 332 W/m² -
1788474723 36.67° C 38% 1012.6 hPa 0 mm - 356 W/m² -
1788474423 36.67° C 38% 1012.6 hPa 0 mm - 378 W/m² -
1788474123 36.67° C 39% 1012.7 hPa 0 mm - 394 W/m² -
1788473818 36.67° C 39% 1012.5 hPa 0 mm - 393 W/m² -
1788473516 37.22° C 39% 1012.6 hPa 0 mm - 407 W/m² -
1788473215 36.67° C 39% 1012.5 hPa 0 mm - 432 W/m² -
1788472909 36.67° C 40% 1012.6 hPa 0 mm - 430 W/m² -
1788472608 36.67° C 40% 1012.5 hPa 0 mm - 431 W/m² -
1788472304 37.22° C 39% 1012.7 hPa 0 mm - 425 W/m² -
1788472002 36.67° C 39% 1012.8 hPa 0 mm - 429 W/m² -
1788471698 36.67° C 40% 1012.6 hPa 0 mm - 426 W/m² -
1788471393 36.67° C 40% 1012.6 hPa 0 mm - 462 W/m² -
1788471089 37.22° C 38% 1012.9 hPa 0 mm - 486 W/m² -
1788470784 37.22° C 38% 1012.8 hPa 0 mm - 502 W/m² -
1788470480 37.78° C 37% 1013.1 hPa 0 mm - 510 W/m² -
1788470174 37.22° C 38% 1012.9 hPa 0 mm - 531 W/m² -
1788469872 37.22° C 39% 1013 hPa 0 mm - 533 W/m² -
1788469566 37.22° C 40% 1012.9 hPa 0 mm - 567 W/m² -
1788469262 37.78° C 37% 1013 hPa 0 mm - 564 W/m² -
1788468961 37.22° C 39% 1013 hPa 0 mm - 592 W/m² -

* Rain latest hour (hover to see other rain measurements)
** Current wind speed in m/s (hover to see current wind gust speed)